Weather Roundup
Issued by NWS Springfield, MO

Home | Current Version | Previous Version | Text Only | Print | Product List | Glossary On
Versions: 1 2 3 4 5 6 7 8 9 10 11 12 13 14 15 16 17 18 19 20 21 22 23 24 25 26 27 28 29 30 31 32 33 34 35 36 37 38 39 40 41 42 43 44 45 46 47 48 49 50
000
NZUS99 KSGF 231107
HRRSGF

HOURLY WEATHER
NATIONAL WEATHER SERVICE SPRINGFIELD MO
600 AM CDT SAT JUL 23 2016

......SGF CWA......

CITY           SKY/WX    TMP DP  RH WIND       PRES   REMARKS
SPRINGFIELD    CLEAR     77  73  87 S3        30.01R FOG
JOPLIN         CLEAR     77  72  84 S7        29.97F
WEST PLAINS    CLEAR     74  71  91 CALM      30.04S
ROLLA          PTCLDY    73  69  87 S5        29.99F
OSAGE BEACH    CLEAR     76  74  93 CALM      30.00S
BRANSON        CLEAR     75  73  94 CALM      30.03S

......SURROUNDING SGF CWA......

CITY           SKY/WX    TMP DP  RH WIND       PRES   REMARKS
CHANUTE        CLEAR     75  72  90 SE6       29.96S
PARSONS        CLEAR     77  71  82 SE3       29.97S
COFFEYVILLE    CLEAR     76  71  85 SE5       29.95S
EMPORIA        CLEAR     76  70  82 S9        29.93F
GROVE OK       CLEAR     75  73  94 S3        29.98F
ROGERS AR      CLEAR     76  73  91 S3        30.02F
SILOAM SPRINGS CLEAR     73  64  73 E6        30.01F
HARRISON AR    CLEAR     74  73  97 SE3       30.03R
NEAR YELLVILLE PTCLDY    75  72  88 CALM      29.98R

......KANSAS AND MISSOURI......

CITY           SKY/WX    TMP DP  RH WIND       PRES   REMARKS
KANSAS CTY INT PTCLDY    78  72  81 S8G21     29.94F
DOWNTOWN KC    CLEAR     81  73  76 S6        29.93S
COLUMBIA       CLEAR     76  75  97 SE7       29.98S
SEDALIA        CLEAR     76  74  93 S7        29.98S
ST JOSEPH      CLOUDY    80  72  76 CALM      29.93S
ST LOUIS       MOCLDY    78  72  81 CALM      29.99S
SPIRIT OF STL  MOCLDY    73  72  96 CALM      29.97S
KIRKSVILLE     CLEAR     76  74  93 S5        29.97S
WICHITA        PTCLDY    75  66  73 S8        29.93F
TOPEKA         CLOUDY    82  70  66 VRB5      29.92S
OLATHE         CLEAR     75  71  87 S6        29.96S

......TENNESSEE......

CITY           SKY/WX    TMP DP  RH WIND       PRES   REMARKS
MEMPHIS        CLOUDY    80  75  84 SE6       29.96F
NASHVILLE      CLOUDY    76  72  87 CALM      30.00S

......ARKANSAS.......

CITY           SKY/WX    TMP DP  RH WIND       PRES   REMARKS
FAYETTEVILLE   CLEAR     71  71 100 CALM      30.01F
FT SMITH       MOCLDY    80  75  84 CALM      29.97R
LITTLE ROCK    PTCLDY    80  76  87 CALM      29.97R

......OKLAHOMA.......

CITY           SKY/WX    TMP DP  RH WIND       PRES   REMARKS
TULSA          PTCLDY    82  72  71 S6        29.93F
PONCA CITY     CLEAR     79  68  69 S5        29.93F
MCALESTER      MOCLDY    74  70  87 CALM      29.98R
OKLAHOMA CITY  PTCLDY    73  67  81 S8        29.97R

......IOWA............

CITY           SKY/WX    TMP DP  RH WIND       PRES   REMARKS
DES MOINES     CLOUDY    79  76  90 S5        29.91S
QUAD CITIES    CLEAR     75  73  93 E5        29.96F

......ILLINOIS........

CITY           SKY/WX    TMP DP  RH WIND       PRES   REMARKS
QUINCY         CLEAR     75  72  90 S5        29.96F
CHICAGO        MOCLDY    78  75  90 W5        29.98R




USA.gov is the U.S. government's official web portal to all federal, state and local government web resources and services.